Tracking 18793 objects as of 25-September-2017
HD Live streaming from Space Station
objects crossing your sky now

TELSTAR 12 (ORION 2)

Track TELSTAR 12 (ORION 2) now!
TELSTAR 12 (ORION 2) is classified as:


NORAD ID: 25949
Int'l Code: 1999-059A
Perigee: 35,781.4 km
Apogee: 35,805.5 km
Inclination: 1.1 °
Period: 1,436.1 minutes
Semi major axis: 42164 km
RCS: 31.4284 m2 (large)
Launch date: October 19, 1999
Source: United States (US)
Launch site: FRENCH GUIANA (FRGUI)

Voice and video communications to the Americas, Europe, and Africa
aabbcc
Your satellite tracking list
Your tracking list is empty





NASA's NSSDC Master Catalog

Two Line Element Set (TLE):
1 25949U 99059A   17267.73240539 -.00000080 +00000-0 +00000-0 0  9996
2 25949 001.1405 088.3605 0002866 099.1517 330.7126 01.00272818065570
Source of the keplerian elements: AFSPC